If you wish to contribute or participate in the discussions about articles you are invited to join SKYbrary as a registered user

 Actions

Alfonso Bonilla Aragón International Airport

From SKYbrary Wiki

SKCL
Airport
ICAO: SKCL – IATA: CLO
Summary
Name Alfonso Bonilla Aragón International Airport
Region South America and Caribbean
Territory Colombia CO.gif
Location Palmira, Valle del Cauca Department
Serving Cali
Elevation 963.778 m
3,162 ft963.778 m
Coordinates 3° 32' 38.26" N, 76° 23' 2.63" W
Runways
Designator Length Width Surface ROPS
1/19 3000 m9,842.52 ft
45 m147.638 ft
ASP yes/yes


METAR
Observation SKCL 102200Z 31009KT 9999 VCSH SCT025TCU BKN100 29/19 A2990 NOSIG RMK TCU/VCSH N/SE
Station Cali / Alfonso Bonillaaragon
Date/Time 10 June 2019 22:00:00
Wind direction 310°
Wind speed 09 kts
Lowest cloud amount scattered clouds
Temperature 29°C
Dew point 19°C
Humidity 54%
QNH hPa
Weather condition in vicinity: showers

Alfonso Bonilla Aragón International Airport also known as Palmaseca International Airport is an airport located in Palmira, Colombia, serving Cali and its suburbs.

Climatology

Tropical savanna climate (Köppen climate classification Aw)

Maps

Terrain

Loading map...

Airport Layout

Loading map...


Accidents & Serious Incidents at or in vicinity of SKCL

None on SKYbrary